DECAYED

CZ-6A DEB, 61271 (Decayed)

Orbit data source: Space-Track

CZ-6A DEB, 61271 was space debris in LEO originally from a launch on Tue, 06 Aug 2024 UTC launched from the Taiyaun Space Center, China (TSC). Debris objects in space refer to the collection of defunct objects orbiting the Earth. Examples of debris include non-operational satellites, rocket bodies, and fragments generated from explosions, collisions, or faulty payload assembly.

Not visible in the next 10 days
Identifier
61271, 2024-140SG
Orbit
Decayed
Country
Flag of CNCN / PRC
Related business
Manufacturer
SAST
Mission
Decayed spacecraft
Bus & Motor
Unknown
Mass
Unknown
Launch date (UTC)
2024-08-06 (1 year ago)
Launch vehicle
Unknown
Launch site
Taiyaun Space Center, China (TSC)
Object type
Payload
Rocket body
Debris
Shape & HBR
Unknown shape, 0.1 m
Radar Cross Section
Small (<0.1 m²)

Expand to show TLE details & history
Last TLE update: 9 months ago

TLE from 9 months ago
0 CZ-6A DEB
1 61271U 24140SG  25036.76919755  .08222689  11891+0  31575-1 0  9991
2 61271  89.1405 332.0457 0038702 136.3064 224.1296 15.91989136 24434
Epoch: 2025-02-05T18:27Z
TLE epoch observation values (Epoch: 2025-02-05T18:27:38.668Z)
Latitude
-0.00001°
Longitude
-81.0208°
Altitude
318.608 km
Speed
7.706 km/s
True Right ascension
22h 08m 10s
True Declination
0° 00' 00"
Sunlit
Object was in daylight at epoch
Visualization orbit readout
Latitude
Unknown
Longitude
Unknown
Altitude
Unknown
Speed
Unknown
Apparent Right ascension
Unknown
Apparent Declination
Unknown
Sunlit
N/A
Visualization observer readout
Local Sidereal Time
08:52:24
Azimuth
Unknown
Elevation
Unknown
Doppler factor
Unknown
Orbital elements
Apogee altitude
319.246 km
Perigee altitude
267.605 km
Semi-major axis
6,671.562 km
Eccentricity
0.00387
Inclination
89.1405°
RAAN
332.0457°
Arg. of periapsis
136.3064°
True anomaly
223.82187°
Mean anomaly
224.1296°
Eccentric anomaly
223.97563°
Mean motion
3.98292 °/min
Orbital period
90.39 mins
BSTAR
0.031575
Loading maneuver chart data...
Computing Atmospheric mass density...
Loading historical data...
Loading historical data...
Loading historical data...
Loading historical data...
Loading historical data...
Loading historical data...
Loading historical data...

Documentation

Showing up to 5 results
|